{"data":{"norad_id":67366,"intl_designator":"2026-004D","name":"LEMUR-2 CALLUM-K-J","alt_names":[],"object_type":"PAYLOAD","status":"ACTIVE","operator":null,"country":"US","launch_date":"2026-01-11","launch_site_code":"AFWTR","launch_vehicle":null,"mission":null,"orbit_class":"UNKNOWN","rcs_meters":null,"size_class":null,"mass_kg":null,"dimensions":null,"purposes":[],"wikipedia_slug":null,"has_3d_model":false,"image_url":null,"decayed_at":null,"tle_current":{"epoch":"2026-05-25T00:03:16.674048Z","epoch_age_seconds":88908,"freshness":"FRESH","line1":"1 67366U 26004D   26145.00227632  .00004173  00000+0  45985-3 0  9998","line2":"2 67366  97.8017 143.9312 0007962 201.0306 159.0585 14.88034975 19845","mean_motion":14.88034975,"eccentricity":0.0007962,"inclination_deg":97.8017,"raan_deg":143.9312,"arg_perigee_deg":201.0306,"mean_anomaly_deg":159.0585,"bstar":0.00045985,"rev_number":1984,"period_min":96.771918953047,"perigee_km":598.51657965367,"apogee_km":609.63505534426,"semimajor_km":6982.212817499,"source":"CELESTRAK","updated_at":"2026-05-25T13:38:06.927143Z"}}}